Regional Weather Roundup
Issued by NWS Grand Forks, ND

Home | Current Version | Previous Version | Text Only | Print | Product List | Glossary Off
Versions: 1 2 3 4 5 6 7 8 9 10 11 12 13 14 15 16 17 18 19 20 21 22 23 24 25 26 27 28 29 30 31 32 33 34 35 36 37 38 39 40 41 42 43 44 45 46 47 48 49 50

000
ASUS43 KFGF 311210
RWRFGF
PRAIRIE TO PINES  WEATHER ROUNDUP
NATIONAL WEATHER SERVICE EASTERN NORTH DAKOTA/GRAND FORKS ND
700 AM CDT TUE MAY 31 2016

 **SATELLITE DATA USED TO AUGMENT SKY COVER AT AUTOMATED STATIONS**
 *****  WEATHER ACROSS EASTERN NORTH DAKOTA  *****

CITY           SKY/WX    TMP DP  RH WIND       PRES   REMARKS
GRAND FORKS    CLOUDY    60  58  92 SE13      29.69S
6HR MIN TEMP:  59; 6HR MAX TEMP:  61; 6HR PCP:  0.20;

GRAND FRKS AFB CLOUDY    59  59 100 S13       29.68S
GRAND FRKS NWS   N/A     57 N/A N/A S7          N/A
DEVILS LAKE    CLOUDY    58  56  93 SW12      29.64F
6HR MIN TEMP:  58; 6HR MAX TEMP:  59; 6HR PCP:  0.15;

FARGO          CLOUDY    62  58  86 S13       29.72F
WAHPETON ARPT  CLOUDY    59  55  88 SW6       29.76S
$$

 ***** WEATHER ACROSS CENTRAL AND WESTERN NORTH DAKOTA  *****

CITY           SKY/WX    TMP DP  RH WIND       PRES   REMARKS
BISMARCK       CLEAR     49  44  83 W17       29.78F
6HR MIN TEMP:  49; 6HR MAX TEMP:  56; 6HR PCP:  0.01;

MINOT          LGT RAIN  57  54  89 W7        29.66F
6HR MIN TEMP:  56; 6HR MAX TEMP:  58; 6HR PCP:  0.14;

JAMESTOWN      CLOUDY    57  54  89 SW12      29.71S
6HR MIN TEMP:  54; 6HR MAX TEMP:  58;

MINOT AFB      RAIN      54  54  99 W8        29.65F FOG
GARRISON         N/A     50  47  89 W18       29.71F
WILLISTON      LGT RAIN  52  49  89 W7        29.74F
6HR MIN TEMP:  50; 6HR MAX TEMP:  53; 6HR PCP:  0.19;

DICKINSON      LGT RAIN  45  43  93 W17       29.78F
6HR MIN TEMP:  41; 6HR MAX TEMP:  46; 6HR PCP:  0.01;

HETTINGER      MOCLDY    46  42  86 W15G25    29.87S
6HR MIN TEMP:  43; 6HR MAX TEMP:  46;

$$

 *****  OTHER AIRPORT OBSERVATIONS IN OUR AREA  *****

CITY           SKY/WX    TMP DP  RH WIND       PRES   REMARKS
WALHALLA       FAIR      57  54  88 SE12      29.67F
GRAFTON AIRPOR CLOUDY    61  61 100 SE17      29.70S
VALLEY CITY AR CLOUDY    57  57 100 SW10      29.74S
CANDO          NOT AVBL
CAVALIER APRT  CLOUDY    59  59 100 SE9G17    29.67F
GWINNER        FAIR      57  57 100 SW9       29.77S
SHEYENNE NWR     N/A     59  58  95 SW7       29.95
ROLLA          LGT RAIN  54  54 100 E20G26    29.65F VSB 1
 ***** THE ABOVE OBSERVATIONS ARE NON NWS ARE NOT QUALITY
       CONTROLLED AND MAY MIS-REPORT RAIN FOR SNOW...
$$

  *****  WEATHER ACROSS NORTHERN MINNESOTA  *****

CITY           SKY/WX    TMP DP  RH WIND       PRES   REMARKS
FLAG ISLAND    RAIN      54  50  87 E8G16     29.87S
WARROAD        LGT RAIN  54  50  87 E20G26    29.82F
ROSEAU         LGT RAIN  54  48  82 E16G23    29.80S
HALLOCK        RAIN      61  55  82 SE16      29.70S
THF RVR FALLS  CLOUDY    59  54  82 E14G21    29.75S
6HR MIN TEMP:  57; 6HR MAX TEMP:  59; 6HR PCP:  0.41;

BAUDETTE       LGT RAIN  53  50  89 E18G28    29.85F
6HR MIN TEMP:  53; 6HR MAX TEMP:  59; 6HR PCP:  0.05;

WASKISH        LGT RAIN  52  50  93 E16G23    29.85S
CROOKSTON      CLOUDY    61  59  94 S12       29.73S
STEPHEN NDAWN    N/A     61  57  88 SE17        N/A
GREENBUSH NDAW   N/A     55  54  94 SE18        N/A
$$
  *****  WEATHER ACROSS CENTRAL AND WEST MINNESOTA  *****

CITY           SKY/WX    TMP DP  RH WIND       PRES   REMARKS
FOSSTON        DRIZZLE   57  55  94 SE14G22   29.75R
BEMIDJI        CLOUDY    52  51  95 SE14      29.82R
PARK RAPIDS    CLOUDY    57  54  89 SE9       29.81R
6HR MIN TEMP:  57; 6HR MAX TEMP:  66; 6HR PCP:  0.65;

ELBOW LAKE     CLOUDY    61  59  94 S12       29.77F
6HR MIN TEMP:  59; 6HR MAX TEMP:  64; 6HR PCP:  0.32;

WADENA         LGT RAIN  59  57  94 SE3       29.80R
DETROIT LAKES  CLOUDY    61  59  94 SE9       29.77S
MOORHEAD       CLOUDY    61  57  88 S9        29.74F
FERGUS FALLS   CLOUDY    63  61  94 S10       29.74S
MORRIS MN      CLOUDY    63  61  94 S13       29.78R
STAPLES        LGT RAIN  61  59  94 SE6       29.81R
$$
  *****  WEATHER ELSEWHERE ACROSS MINNESOTA  *****

CITY           SKY/WX    TMP DP  RH WIND       PRES   REMARKS
DULUTH         CLOUDY    47  41  80 E16G28    29.95F
6HR MIN TEMP:  47; 6HR MAX TEMP:  53; 6HR PCP: TRACE;

INTRNTL FALLS  LGT RAIN  52  45  77 SE13G22   29.94R
6HR MIN TEMP:  52; 6HR MAX TEMP:  57; 6HR PCP: TRACE;

ELY            CLOUDY    48  37  66 E13G22    30.00F
CLOQUET        CLOUDY    46  43  87 E13G22    29.95S
WHEATON        PTSUNNY   61  57  88 W9        29.79R
BRAINERD       LGT RAIN  55  54  96 VRB7      29.84S
6HR MIN TEMP:  55; 6HR MAX TEMP:  64; 6HR PCP:  1.50;

HIBBING        LGT RAIN  46  43  89 E9        29.93F
6HR MIN TEMP:  46; 6HR MAX TEMP:  58; 6HR PCP:  0.12;

ALEXANDRIA     CLOUDY    61  58  90 S10       29.81R
6HR MIN TEMP:  59; 6HR MAX TEMP:  68; 6HR PCP:  0.40;

SAINT CLOUD    LGT RAIN  62  60  93 E6        29.82F
6HR MIN TEMP:  62; 6HR MAX TEMP:  69; 6HR PCP:  0.16;

MINNEAPOLIS    CLOUDY    66  57  72 SE9       29.86F
6HR MIN TEMP:  66; 6HR MAX TEMP:  71;

$$

  *****  WEATHER ACROSS SOUTH DAKOTA  *****

CITY           SKY/WX    TMP DP  RH WIND       PRES   REMARKS
SIOUX FALLS    CLOUDY    59  54  83 NW7       29.90R
6HR MIN TEMP:  59; 6HR MAX TEMP:  63; 6HR PCP:  0.17;

BROOKINGS      CLOUDY    58  54  86 W6        29.87R
WATERTOWN      PTSUNNY   58  54  86 W15       29.84R
6HR MIN TEMP:  58; 6HR MAX TEMP:  62;

HURON          SUNNY     54  49  83 W16       29.89R
6HR MIN TEMP:  54; 6HR MAX TEMP:  61;

SISSETON         N/A     60  56  86 W10       29.78R
ABERDEEN       MOSUNNY   54  51  90 W12       29.83R
6HR MIN TEMP:  54; 6HR MAX TEMP:  60;

MITCHELL       CLOUDY    56  52  86 W14       29.92R
PIERRE         CLEAR     50  42  74 W14       29.94R
6HR MIN TEMP:  49; 6HR MAX TEMP:  56;

MOBRIDGE       PTCLDY    51  43  74 W12       29.85S
RAPID CITY     CLEAR     44  34  67 SW7       29.99S
6HR MIN TEMP:  40; 6HR MAX TEMP:  53;

$$

  *****  SOME WEATHER IN NEARBY STATES *****

CITY           SKY/WX    TMP DP  RH WIND       PRES   REMARKS
GLASGOW MT     CLOUDY    51  49  92 N22G30    29.88R
6HR MIN TEMP:  49; 6HR MAX TEMP:  52; 6HR PCP:  0.07;

GREAT FALLS MT CLEAR     41  36  82 NW12      30.24R
6HR MIN TEMP:  40; 6HR MAX TEMP:  44;

CHEYENNE WY    CLOUDY    45  37  73 CALM      30.17R
6HR MIN TEMP:  44; 6HR MAX TEMP:  47;

SCOTTSBLUFF NE CLOUDY    50  41  71 NW6       30.11R
6HR MIN TEMP:  49; 6HR MAX TEMP:  55; 6HR PCP: TRACE;

OMAHA NE       CLOUDY    67  62  84 N7        29.90R
6HR MIN TEMP:  66; 6HR MAX TEMP:  71;

DES MOINES IA  CLOUDY    66  59  78 S7        29.94R
6HR MIN TEMP:  64; 6HR MAX TEMP:  70;

DAVENPORT IA   MOSUNNY   67  62  84 SE5       29.97R
6HR MIN TEMP:  64; 6HR MAX TEMP:  71;

CHICAGO IL     PTSUNNY   69  54  58 E8        30.00R
6HR MIN TEMP:  64; 6HR MAX TEMP:  69;

EAU CLAIRE WI  CLOUDY    64  57  78 SE6       29.91R
6HR MIN TEMP:  62; 6HR MAX TEMP:  68; 6HR PCP:  0.09;

LA CROSSE WI   PTSUNNY   65  59  81 SE5       29.91F
6HR MIN TEMP:  63; 6HR MAX TEMP:  68; 6HR PCP:  0.05;

$$

  *****  SOME NATIONAL WEATHER *****

CITY           SKY/WX    TMP DP  RH WIND       PRES   REMARKS
LA GUARDIA NY  PTSUNNY   74  64  72 NW3       29.95R
6HR MIN TEMP:  73; 6HR MAX TEMP:  74;

RALEIGH NC     PTSUNNY   71  69  93 NE5       29.97R
6HR MIN TEMP:  70; 6HR MAX TEMP:  71;

ATLANTA GA     PTSUNNY   74  62  66 E9        29.98R
6HR MIN TEMP:  72; 6HR MAX TEMP:  76;

NEW ORLEANS LA PTSUNNY   74  71  91 CALM      29.95R
6HR MIN TEMP:  72; 6HR MAX TEMP:  75;

OKLAHOMA CITY  MOCLDY    68  65  90 CALM      29.89R
6HR MIN TEMP:  66; 6HR MAX TEMP:  68; 6HR PCP: TRACE;

ALBUQUERQUE NM CLOUDY    63  39  41 E3        30.01S
6HR MIN TEMP:  61; 6HR MAX TEMP:  70;

SALT LAKE CITY PTCLDY    53  41  63 SE5       30.06R
6HR MIN TEMP:  53; 6HR MAX TEMP:  66;

LOS ANGELES CA CLOUDY   C1F1C2F2C3F3C4F4C5F5C6F6C7F7C8F8C9F9CaFaCbFbCcFcCd!


USA.gov is the U.S. government's official web portal to all federal, state and local government web resources and services.